Weather Roundup
Issued by NWS Chicago, IL

Home | Current Version | Previous Version | Graphics & Text | Print | Product List | Glossary On
Versions: 1 2 3 4 5 6 7 8 9 10 11 12 13 14 15 16 17 18 19 20 21 22 23 24 25 26 27 28 29 30 31 32 33 34 35 36 37 38 39 40 41 42 43 44 45 46 47 48 49 50
000
NZUS59 KLOT 281908
HRRLOT

CHICAGO AREA WEATHER ROUNDUP
NATIONAL WEATHER SERVICE CHICAGO/ROMEOVILLE IL
200 PM CDT THU JUL 28 2016

NOTE: "FAIR" INDICATES FEW OR NO CLOUDS BELOW 12,000 FEET WITH NO
SIGNIFICANT WEATHER AND/OR OBSTRUCTIONS TO VISIBILITY.

* THESE STATIONS ARE NOT UNDER NWS QUALITY CONTROL. THEY ALSO MAY NOT
  REPORT WEATHER SUCH AS PRECIPITATION OR FOG.

ILZ005-006-012>014-019>023-282000-
NORTHEAST ILLINOIS

CITY           SKY/WX    TMP DP  RH WIND       PRES   REMARKS
OHARE          LGT RAIN  74  70  87 N7        29.89S FOG
MIDWAY         CLOUDY    82  68  62 NE6       29.87S HX  85
AURORA         MOSUNNY   86  71  60 S10       29.87F HX  91
LANSING*       PTSUNNY   85  67  53 S8        29.87F HX  88
JOLIET*        MOSUNNY   87  70  58 SW6       29.86F HX  91
WAUKEGAN       MOSUNNY   80  68  66 E10       29.88F HX  83
DUPAGE AIRPORT CLOUDY    77  67  71 NE12      29.88R THUNDER
WHEELING       TSTM      76  69  79 E5        29.90R
KANKAKEE*      MOSUNNY   86  70  59 S5        29.88F HX  90
MORRIS*        MOSUNNY   85  71  63 S5        29.85F HX  90
LEWIS AIRPORT* CLOUDY    84  68  57 S8G71     29.86F HX  87
NORTHERLY ISL    N/A     78  70  76 N8          N/A  HX  80
$$

WIZ051-052-058>065-066-070>072-282000-
SOUTHEAST WISCONSIN

CITY           SKY/WX    TMP DP  RH WIND       PRES   REMARKS
MILWAUKEE      PTSUNNY   77  64  64 NE18      29.91F
KENOSHA*       SUNNY     83  66  56 E12       29.90S HX  85
RACINE*        MOSUNNY   77  68  73 NE12      29.92S
BURLINGTON     PTSUNNY   81  68  63 NE10      29.89F HX  84
WAUKESHA       MOSUNNY   72  64  78 NE10      29.94S
$$

INZ001>003-010>013-019-020-282000-
NORTHWEST INDIANA

CITY           SKY/WX    TMP DP  RH WIND       PRES   REMARKS
GARY*          PTSUNNY   84  72  65 NE9       29.87F HX  89
MICHIGAN CITY* NOT AVBL
RENSSELAER*    NOT AVBL
VALPARAISO     MOSUNNY   86  67  52 S10       29.88F HX  89
$$

LMZ740>746-282000-
SOUTHERN LAKE MICHIGAN

STATION/POSITION TIME  SKY/WX   TEMP WIND        PRES    VSBY
                                AIR  DIR/SP/G
                 (UTC)          (F)  (DEG/KT/KT) (MB)    (MI)
HARRISON CRIB    1800            76   40/  6/  6   N/A
BURNHAM HARBOR   1900            77   10/  6/  7   N/A
CALUMET HARBOR   1800            79   40/  7/  8 1011.3F
BURNS HARBOR     1800            79   30/  8/  8 1012.2F
MICHIGAN CITY    1800            79  350/  7/  8   N/A
$$

ABBREVIATIONS USED IN REMARKS
   TC - TEMPERATURE IN CELSIUS
  WCI - WIND CHILL INDEX
   HX - HEAT INDEX
  VSB - VISIBILITY
$$



USA.gov is the U.S. government's official web portal to all federal, state and local government web resources and services.